THORAD AGENA D DEB, 14478

Orbit data source: Space-Track

THORAD AGENA D DEB, 14478 is space debris in SSO originally from a launch on Wed, 08 Apr 1970 UTC launched from the Air Force Western Test Range (AFWTR). Debris objects in space refer to the collection of defunct objects orbiting the Earth. Examples of debris include non-operational satellites, rocket bodies, and fragments generated from explosions, collisions, or faulty payload assembly.

Loading next visibility...
Identifier
14478, 1970-025NW
Orbit
SSO
Country
Flag of USUS
Related business
Manufacturer
Unknown
Mission
Spacecraft
Bus & Motor
Unknown
Mass
Unknown
Launch date (UTC)
1970-04-08 (56 years ago)
Launch vehicle
Unknown
Launch site
Air Force Western Test Range (AFWTR)
Object type
Payload
Rocket body
Debris
Shape & HBR
Unknown shape, 0.1 m
Radar Cross Section
Medium (>0.1 m² and <1 m²)

Expand to show TLE details & history
Last TLE update: 2 days ago

TLE from 2 days ago
0 THORAD AGENA D DEB
1 14478U 70025NW  26171.41562961  .00003216  00000-0  10453-1 0  9995
2 14478 100.9145 341.7727 0487555  44.5501 319.3722 12.68360262609525
Epoch: 2026-06-20T09:58Z
TLE epoch observation values (Epoch: 2026-06-20T09:58:30.398Z)
Latitude
Longitude
-76.48453°
Altitude
1,112.095 km
Speed
7.426 km/s
True Right ascension
22h 47m 05s
True Declination
0° 00' 00"
Sunlit
Object was in daylight at epoch
Visualization orbit readout
Latitude
Unknown
Longitude
Unknown
Altitude
Unknown
Speed
Unknown
Apparent Right ascension
Unknown
Apparent Declination
Unknown
Sunlit
N/A
Visualization observer readout
Local Sidereal Time
05:24:25
Azimuth
Unknown
Elevation
Unknown
Doppler factor
Unknown
Orbital elements
Apogee altitude
1,764.642 km
Perigee altitude
1,007.544 km
Semi-major axis
7,764.23 km
Eccentricity
0.04876
Inclination
100.9145°
RAAN
341.7727°
Arg. of periapsis
44.5501°
True anomaly
315.56105°
Mean anomaly
319.3722°
Eccentric anomaly
317.48439°
Mean motion
3.17246 °/min
Orbital period
113.48 mins
BSTAR
0.010453
Loading maneuver chart data...
Computing Atmospheric mass density...

Documentation

Showing up to 5 results
|